FALCON 9 DEB, 52893

Orbit data source: Space-Track

FALCON 9 DEB, 52893 is space debris in LEO originally from a launch on Sun, 19 Jun 2022 UTC launched from the Air Force Eastern Test Range (AFETR). Debris objects in space refer to the collection of defunct objects orbiting the Earth. Examples of debris include non-operational satellites, rocket bodies, and fragments generated from explosions, collisions, or faulty payload assembly.

Loading next visibility...
Identifier
52893, 2022-064F
Orbit
LEO
Country
Flag of USUS
Related business
Manufacturer
SpaceX/Seattle
Mission
Spacecraft
Bus & Motor
Unknown
Mass
~50 kg wet, ~50 kg dry
Launch date (UTC)
2022-06-19 (4 years ago)
Launch vehicle
Unknown
Launch site
Air Force Eastern Test Range (AFETR)
Object type
Payload
Rocket body
Debris
Shape & HBR
Cyl, 3.5 m
Radar Cross Section
0.110 m², Medium (>0.1 m² and < 1m²)

Expand to show TLE details & history
Last TLE update: 16 hours ago

TLE from 16 hours ago
0 FALCON 9 DEB
1 52893U 22064F   26094.88251873  .00010033  00000-0  29021-3 0  9998
2 52893  52.9892 314.4384 0005220 287.7203  72.3228 15.36244571168466
Epoch: 2026-04-04T21:10Z
TLE epoch observation values (Epoch: 2026-04-04T21:10:49.618Z)
Latitude
-0.00002°
Longitude
163.53572°
Altitude
457.028 km
Speed
7.64 km/s
True Right ascension
20h 57m 45s
True Declination
0° 00' 00"
Sunlit
Object was in daylight at epoch
Visualization orbit readout
Latitude
Unknown
Longitude
Unknown
Altitude
Unknown
Speed
Unknown
Apparent Right ascension
Unknown
Apparent Declination
Unknown
Sunlit
N/A
Visualization observer readout
Local Sidereal Time
19:26:53
Azimuth
Unknown
Elevation
Unknown
Doppler factor
Unknown
Orbital elements
Apogee altitude
461.079 km
Perigee altitude
453.943 km
Semi-major axis
6,835.648 km
Eccentricity
0.00052
Inclination
52.9892°
RAAN
314.4384°
Arg. of periapsis
287.7203°
True anomaly
72.3798°
Mean anomaly
72.3228°
Eccentric anomaly
72.3513°
Mean motion
3.84037 °/min
Orbital period
93.74 mins
BSTAR
0.00029021
Loading maneuver chart data...
Computing Atmospheric mass density...
Loading historical data...
Loading historical data...
Loading historical data...
Loading historical data...
Loading historical data...
Loading historical data...
Loading historical data...
Other satellites on launch #64 in the year 2022 (2022-06-19 UTC)

Documentation

Showing up to 5 results
|